User: anonymous   Login
Location: Unspecified
(40.9447°N, 78.9903°W)
Time: 14:53:09
(UTC-04:00)
Language:

Cosmos 1674 - Orbit

View from above orbital plane
View from above orbital plane
View from above satellite
View from above satellite

Ground track
Ground track

The orbit data is extracted from the following two-line orbital elements,

1 15944U 85069A   21266.03165822  .00001217  00000-0  53793-4 0  9997
2 15944  82.5053 122.6272 0018110  98.2039 262.1251 15.20590473974658
Epoch (UTC): 23 September 2021 00:45:35
Eccentricity: 0.0018110
inclination: 82.5053°
perigee height: 491 km
apogee height: 516 km
right ascension of ascending node: 122.6272°
argument of perigee: 98.2039°
revolutions per day: 15.20590473
mean anomaly at epoch: 262.1251°
orbit number at epoch: 97465

The dashed part of the orbit path shows where the satellite is in the earth's shadow,  

DLR